sat.trackr.live / text

‹ back to catalog

STARLINK-34021

NORAD 63940 · 2025-098Q

PAYLOAD ACTIVE UNKNOWN

§ Identity

Operator
Country
US
Launch date
2025-05-13
Launch site
AFWTR
Launch vehicle
Mass (kg)
RCS (m²)

Purposes: comms

External: N2YO · Heavens-Above · Gunter

§ Orbital elements

Epoch: 2026-09-20T02:34:28.354368Z

Period
94.14 min
Inclination
69.9992°
Eccentricity
0.0003267
Mean motion
15.29588566 rev/d
Perigee alt
474.8 km
Apogee alt
479.3 km
Semi-major
6,855.2 km
B*
5.0402e-4
RAAN
141.8939°
Arg perigee
264.0172°
Mean anomaly
96.0631°
Rev number
7,573

§ Raw data

STARLINK-340211 63940U 25098Q   26263.10727262  .00014393  00000+0  50402-3 0  99952 63940  69.9992 141.8939 0003267 264.0172  96.0631 15.29588566 75735

JSON: /api/v1/satellites/63940 · /tle

For live sub-satellite position, see the globe view (requires WebGL).

§ Visibility from observer

Set your observer location to see the next 7 days of passes ≥ 10°. The values pass through the URL so the page stays shareable.

No JS? Fill the form by hand. The geolocation button needs JavaScript.